Weather in Zavoljie

Russia / Nizhny Novgorod Oblast'     56°38′25″N   43°23′13″E
temp.,
°C
wind,
m/s
gust,
m/s
humid.,
%
clouds,
%
prec.,
mm/h
press.,
hPa
HPBL,
m
14 april, wed
wed1400:00+7sse3107962 0.0 1026132
03:00+6sse358172 0.0 102669
06:00+6se3682100 0.0 102684
09:00+11sse476880 0.0 1025206
12:00+14sse475256 0.0 1023491
15:00+16sse474585 0.0 1022928
18:00+13sse3358100 0.0 102143
21:00+9sse3371100 0.0 102124
15 april, thu
thu1500:00+8s227545 0.0 102010
03:00+6s227811 0.0 102010
06:00+6s228029 0.0 101911
09:00+10ssw116640 0.0 1019160
12:00+13wnw115755 0.0 1019444
15:00+12nw3358100 0.0 1019596
18:00+10nne61280100 0.0 1020362
21:00+6ne61284100 0.0 1022358
16 april, fri
fri1600:00+5ne51284100 0.0 1023410
03:00+4ne51183100 0.0 1025419
06:00+4ene5118320 0.0 1025420
09:00+6ene596253 0.0 1026489
12:00+9ene575354 0.0 1027728
15:00+10ene57396 0.0 1027940
18:00+9ene48475 0.0 1027368
21:00+5ne410627 0.0 1029187
17 april, sat
sat1700:00+3ne38705 0.0 1029154
03:00+1ne38755 0.0 1030141
06:00+1ne387315 0.0 1031157
09:00+6ene47525 0.0 1032547
12:00+9ne46445 0.0 10311071
15:00+10ne45445 0.0 10301293
18:00+9nne36535 0.0 1030213
21:00+5ne35705 0.0 103188
18 april, sun
sun1800:00+4ene37772 0.0 1032111
03:00+2ne37810 0.0 1033114
06:00+2ene37820 0.0 1034141
09:00+6ene35600 0.0 1034522
12:00+9ne23515 0.0 10331080
15:00+10nne244874 0.0 10321410
18:00+9ene245685 0.0 1032147
21:00+6ene336762 0.0 103344